Location: Bosmont
(49.7318°N, 3.8587°E)
Time: 14:48:46
(UTC+00:00)

CZ-4B R/B - Pass Details

Date: 08 February 2023
Orbit: 809 x 881 km, 99.0° (Epoch: 25 March)

Event Time Altitude Azimuth Distance (km) Brightness Sun altitude
Rises 18:22:23 0° 158° (SSE) 3,349 6.1 -15.1°
Reaches altitude 10° 18:24:42 10° 157° (SSE) 2,429 5.4 -15.5°
Maximum altitude 18:30:04 78° 72° (ENE) 864 3.1 -16.3°
Drops below altitude 10° 18:35:36 10° 347° (NNW) 2,495 5.8 -17.2°
Sets 18:38:01 0° 346° (NNW) 3,446 6.5 -17.6°
